Weather History for Cavalier, ND

Change the Weather History Date:

Sunday, February 17, 2013

  Actual Average (KGAF) Record (KGAF)
Temperature  
Mean Temperature 24 °F -  
Max Temperature 32 °F 23 °F 48 °F (1981)
Min Temperature 15 °F 4 °F -34 °F (1979)
Degree Days  
Heating Degree Days 42    
Moisture  
Dew Point 23 °F    
Average Humidity 94    
Maximum Humidity 100    
Minimum Humidity 86    
Precipitation  
Precipitation 2.96 in - - ()
Sea Level Pressure  
Sea Level Pressure 29.57 in    
Wind  
Wind Speed 17 mph (South)    
Max Wind Speed 22 mph    
Max Gust Speed 30 mph    
Visibility 7 miles    
Events Rain , Snow    
Averages and records for this station are not official NWS values.
T = Trace of Precipitation, MM = Missing Value Source: NWS Daily Summary

Daily Weather History Graph

Daily Weather History Graph

Search for Another Location

Airport:

Trip Planner

Search our weather history database for the weather conditions in past years. The results will help you decide how hot, cold, wet, or windy it might be!

Date:

Astronomy

Feb. 17, 2013 Rise Set
Actual Time 7:34 AM CST 5:55 PM CST
Civil Twilight 7:02 AM CST 6:27 PM CST
Nautical Twilight 6:25 AM CST 7:04 PM CST
Astronomical Twilight 5:48 AM CST 7:40 PM CST
Moon 10:48 AM CST (2/17) 1:30 AM CST (2/17)
Length of Visible Light 11h 25m
Length of Day
10h 20m
Waxing Crescent, 49% of the Moon is Illuminated
Feb 17
Waxing Crescent
Feb 17
First Quarter
Feb 25
Full
Mar 4
Last Quarter
Mar 11
New

Hourly Weather History & Observations

Time (CST) Temp. Windchill Dew Point Humidity Pressure Visibility Wind Dir Wind Speed Gust Speed Precip Events Conditions
12:15 AM 15.8 °F -0.2 °F 15.8 °F 100% 29.83 in 7.0 mi South 17.3 mph - N/A   Overcast
12:35 AM 17.6 °F 1.3 °F 15.8 °F 93% 29.82 in 7.0 mi South 19.6 mph - N/A   Overcast
12:55 AM 17.6 °F 1.3 °F 15.8 °F 93% 29.80 in 7.0 mi South 19.6 mph - N/A   Overcast
1:15 AM 17.6 °F 1.7 °F 15.8 °F 93% 29.80 in 8.0 mi South 18.4 mph - N/A   Scattered Clouds
1:35 AM 17.6 °F 1.7 °F 15.8 °F 93% 29.79 in 9.0 mi South 18.4 mph - N/A   Partly Cloudy
1:55 AM 17.6 °F 1.7 °F 15.8 °F 93% 29.78 in 10.0 mi South 18.4 mph - N/A   Mostly Cloudy
2:15 AM 17.6 °F 1.7 °F 15.8 °F 93% 29.77 in 10.0 mi South 18.4 mph - N/A   Overcast
2:35 AM 17.6 °F 1.3 °F 15.8 °F 93% 29.76 in 9.0 mi South 19.6 mph - N/A   Scattered Clouds
2:55 AM 17.6 °F 1.7 °F 15.8 °F 93% 29.75 in 9.0 mi South 18.4 mph 24.2 mph N/A   Clear
3:15 AM 19.4 °F 3.6 °F 17.6 °F 93% 29.74 in 8.0 mi South 19.6 mph - N/A   Mostly Cloudy
3:35 AM 19.4 °F 2.8 °F 17.6 °F 93% 29.72 in 7.0 mi South 21.9 mph - N/A   Overcast
3:55 AM 19.4 °F 2.8 °F 17.6 °F 93% 29.71 in 5.0 mi South 21.9 mph - N/A   Overcast
4:15 AM 19.4 °F 2.8 °F 17.6 °F 93% 29.70 in 6.0 mi South 21.9 mph - N/A   Overcast
4:35 AM 19.4 °F 4.1 °F 17.6 °F 93% 29.70 in 7.0 mi South 18.4 mph - N/A   Overcast
4:55 AM 19.4 °F 4.1 °F 19.4 °F 100% 29.68 in 7.0 mi South 18.4 mph - N/A   Overcast
5:15 AM 19.4 °F 4.1 °F 19.4 °F 100% 29.67 in 7.0 mi South 18.4 mph 25.3 mph N/A   Mostly Cloudy
5:35 AM 19.4 °F 4.5 °F 17.6 °F 93% 29.67 in 7.0 mi South 17.3 mph - N/A   Mostly Cloudy
5:55 AM 19.4 °F 4.5 °F 19.4 °F 100% 29.65 in 7.0 mi South 17.3 mph 23.0 mph N/A   Mostly Cloudy
6:15 AM 19.4 °F 4.5 °F 19.4 °F 100% 29.64 in 7.0 mi South 17.3 mph - N/A   Mostly Cloudy
6:35 AM 21.2 °F 6.4 °F 19.4 °F 93% 29.63 in 7.0 mi South 18.4 mph 23.0 mph N/A   Mostly Cloudy
6:55 AM 21.2 °F 5.6 °F 19.4 °F 93% 29.61 in 7.0 mi South 20.7 mph 26.5 mph N/A   Mostly Cloudy
7:15 AM 21.2 °F 6.4 °F 19.4 °F 93% 29.61 in 6.0 mi South 18.4 mph 25.3 mph N/A   Mostly Cloudy
7:35 AM 21.2 °F 6.4 °F 19.4 °F 93% 29.59 in 4.0 mi South 18.4 mph 24.2 mph N/A   Mostly Cloudy
7:55 AM 19.4 °F 4.1 °F 19.4 °F 100% 29.58 in 5.0 mi South 18.4 mph 25.3 mph N/A   Scattered Clouds
8:15 AM 21.2 °F 5.6 °F 19.4 °F 93% 29.57 in 5.0 mi South 20.7 mph 24.2 mph N/A   Clear
8:35 AM 23.0 °F 7.6 °F 21.2 °F 93% 29.57 in 3.0 mi South 21.9 mph - N/A Rain Light Freezing Rain
8:55 AM 23.0 °F 9.2 °F 23.0 °F 100% 29.56 in 3.0 mi South 17.3 mph - N/A Rain Light Freezing Rain
9:15 AM 23.0 °F 9.2 °F 23.0 °F 100% 29.55 in 5.0 mi South 17.3 mph - N/A   Scattered Clouds
9:35 AM 24.8 °F 11.1 °F 24.8 °F 100% 29.54 in 6.0 mi South 18.4 mph 26.5 mph N/A   Mostly Cloudy
9:55 AM 24.8 °F 10.3 °F 24.8 °F 100% 29.54 in 7.0 mi South 20.7 mph - N/A   Mostly Cloudy
10:15 AM 24.8 °F 10.7 °F 24.8 °F 100% 29.52 in 7.0 mi South 19.6 mph - N/A   Mostly Cloudy
10:35 AM 24.8 °F 10.7 °F 23.0 °F 93% 29.52 in 5.0 mi South 19.6 mph 25.3 mph N/A   Mostly Cloudy
10:55 AM 24.8 °F 11.9 °F 23.0 °F 93% 29.51 in 6.0 mi South 16.1 mph - N/A   Mostly Cloudy
11:15 AM 24.8 °F 11.1 °F 23.0 °F 93% 29.51 in 5.0 mi South 18.4 mph - N/A   Mostly Cloudy
11:35 AM 24.8 °F 11.5 °F 23.0 °F 93% 29.50 in 7.0 mi South 17.3 mph 21.9 mph N/A   Scattered Clouds
11:55 AM 24.8 °F 11.9 °F 24.8 °F 100% 29.49 in 8.0 mi South 16.1 mph - N/A   Scattered Clouds
12:15 PM 26.6 °F 14.3 °F 24.8 °F 93% 29.47 in 9.0 mi South 16.1 mph - N/A   Mostly Cloudy
1:15 PM 28.4 °F 17.0 °F 26.6 °F 93% 29.45 in 9.0 mi South 15.0 mph - N/A   Partly Cloudy
1:35 PM 30.2 °F 18.5 °F 26.6 °F 86% 29.44 in 10.0 mi South 17.3 mph - N/A   Partly Cloudy
1:55 PM 30.2 °F 20.2 °F 28.4 °F 93% 29.45 in 10.0 mi South 12.7 mph 17.3 mph N/A   Clear
2:15 PM 32.0 °F 22.1 °F 28.4 °F 87% 29.43 in 10.0 mi South 13.8 mph - N/A   Clear
2:35 PM 32.0 °F 23.0 °F 28.4 °F 87% 29.43 in 10.0 mi South 11.5 mph - N/A   Clear
2:55 PM 32.0 °F 23.6 °F 28.4 °F 87% 29.43 in 10.0 mi SSE 10.4 mph - N/A   Clear
3:15 PM 32.0 °F 21.6 °F 28.4 °F 87% 29.42 in 10.0 mi South 15.0 mph - N/A   Clear
3:35 PM 32.0 °F 22.5 °F 28.4 °F 87% 29.43 in 10.0 mi South 12.7 mph - N/A   Partly Cloudy
3:55 PM 32.0 °F 23.6 °F 28.4 °F 87% 29.43 in 10.0 mi South 10.4 mph - N/A   Scattered Clouds
4:15 PM 32.0 °F 24.8 °F 28.4 °F 87% 29.43 in 10.0 mi South 8.1 mph - N/A   Partly Cloudy
4:35 PM 32.0 °F 25.6 °F 28.4 °F 87% 29.44 in 10.0 mi South 6.9 mph - N/A   Partly Cloudy
4:55 PM 32.0 °F 26.4 °F 30.2 °F 93% 29.44 in 10.0 mi SSE 5.8 mph - N/A   Clear
5:15 PM 32.0 °F 27.5 °F 30.2 °F 93% 29.45 in 10.0 mi SE 4.6 mph - N/A   Partly Cloudy
5:35 PM 32.0 °F 28.7 °F 30.2 °F 93% 29.45 in 10.0 mi SE 3.5 mph - N/A   Scattered Clouds
5:55 PM 32.0 °F - 30.2 °F 93% 29.45 in 10.0 mi Calm Calm - N/A   Scattered Clouds
6:15 PM 30.2 °F 25.4 °F 28.4 °F 93% 29.46 in 9.0 mi South 4.6 mph - N/A   Mostly Cloudy
6:35 PM 32.0 °F 25.6 °F 30.2 °F 93% 29.47 in 10.0 mi South 6.9 mph - N/A   Mostly Cloudy
6:55 PM 30.2 °F - 30.2 °F 100% 29.47 in 10.0 mi Calm Calm - N/A   Mostly Cloudy
7:15 PM 32.0 °F 21.6 °F 30.2 °F 93% 29.49 in 10.0 mi NW 15.0 mph - N/A   Overcast
7:35 PM 30.2 °F 21.3 °F 28.4 °F 93% 29.49 in 7.0 mi North 10.4 mph - N/A   Overcast
7:55 PM 28.4 °F 15.8 °F 26.6 °F 93% 29.50 in 7.0 mi NNW 18.4 mph 21.9 mph N/A   Overcast
8:15 PM 26.6 °F 14.3 °F 26.6 °F 100% 29.51 in 7.0 mi NNW 16.1 mph 21.9 mph N/A   Overcast
8:35 PM 26.6 °F 14.3 °F 26.6 °F 100% 29.51 in 6.0 mi NNW 16.1 mph 21.9 mph N/A   Overcast
8:55 PM 26.6 °F 14.3 °F 24.8 °F 93% 29.52 in 5.0 mi NNW 16.1 mph 21.9 mph N/A   Overcast
9:15 PM 24.8 °F 10.7 °F 24.8 °F 100% 29.52 in 3.0 mi North 19.6 mph - N/A Rain Light Freezing Rain
9:35 PM 24.8 °F 11.9 °F 24.8 °F 100% 29.53 in 4.0 mi NNW 16.1 mph 25.3 mph N/A   Overcast
9:55 PM 24.8 °F 11.9 °F 24.8 °F 100% 29.52 in 0.5 mi North 16.1 mph 24.2 mph 0.11 in Snow Snow
10:15 PM 24.8 °F 12.4 °F 24.8 °F 100% 29.54 in 0.2 mi NNW 15.0 mph 21.9 mph 0.52 in   Overcast
10:35 PM 24.8 °F 12.9 °F 24.8 °F 100% 29.54 in 0.2 mi NNW 13.8 mph - 1.79 in Snow Heavy Snow
10:55 PM 24.8 °F 10.3 °F 24.8 °F 100% 29.54 in 0.2 mi North 20.7 mph - 2.59 in Snow Heavy Snow
11:15 PM 24.8 °F 10.3 °F 24.8 °F 100% 29.54 in 0.2 mi North 20.7 mph 26.5 mph 0.10 in Snow Heavy Snow
11:35 PM 24.8 °F 10.3 °F 23.0 °F 93% 29.54 in 0.2 mi NNW 20.7 mph 29.9 mph 0.26 in Snow Heavy Snow